Regional Weather Roundup
Issued by NWS

Home | Current Version | Previous Version | Graphics & Text | Print | Product List | Glossary On
Versions: 1 2 3 4 5 6 7 8 9 10 11 12 13 14 15 16 17 18 19 20 21 22 23 24 25 26 27 28 29 30 31 32 33 34 35 36 37 38 39 40 41 42 43 44 45 46 47 48 49 50
000
ASUS43 KLOT 261308
RWRIL

ILLINOIS REGIONAL WEATHER ROUNDUP
NATIONAL WEATHER SERVICE CHICAGO/ROMEOVILLE IL
800 AM CDT THU APR 26 2018

NOTE: "FAIR" INDICATES FEW OR NO CLOUDS BELOW 12,000 FEET WITH NO
SIGNIFICANT WEATHER AND/OR OBSTRUCTIONS TO VISIBILITY.

* THESE STATIONS ARE NOT UNDER NWS QUALITY CONTROL. THEY ALSO MAY NOT
  REPORT WEATHER SUCH AS PRECIPITATION OR FOG.

ILZ001-002-007-009-015-016-024-261400-
NORTHWEST ILLINOIS

CITY           SKY/WX    TMP DP  RH WIND       PRES   REMARKS
MOLINE         FAIR      44  34  67 CALM      29.96S
STERLING*      FAIR      43  32  65 SW3       29.98S
SAVANNA*       FAIR      42  32  67 S3        29.98S
$$

ILZ003-004-008-010-011-017-018-261400-
NORTH CENTRAL ILLINOIS

CITY           SKY/WX    TMP DP  RH WIND       PRES   REMARKS
ROCKFORD       FAIR      40  32  73 CALM      29.98S
FREEPORT*      FAIR      41  32  70 CALM      29.98F
ROCHELLE*      FAIR      42  32  69 CALM      29.98S
DE KALB*       FAIR      43  34  72 CALM      29.97S
PERU*          FAIR      44  33  65 CALM      29.99R
$$

ILZ005-006-012>014-019>023-261400-
NORTHEAST ILLINOIS

CITY           SKY/WX    TMP DP  RH WIND       PRES   REMARKS
CHICAGO-OHARE  FAIR      45  31  58 CALM      29.96S
CHICAGO-MIDWAY FAIR      45  32  60 CALM      29.97R
AURORA         FAIR      42  34  73 CALM      29.97R
LANSING*       FAIR      43  35  73 N3        29.97S
JOLIET*        FAIR      44  35  71 CALM      29.98R
WAUKEGAN       FAIR      43  33  68 NW5       29.96S
DUPAGE AIRPORT FAIR      42  34  73 CALM      29.96S
KANKAKEE*      FAIR      43  33  66 N5        29.98R
WHEELING       FAIR      44  33  65 NW3       29.98S
MORRIS*        FAIR      42  33  72 CALM      29.97S
ROMEOVILLE*    FAIR      43  33  69 N3        29.98R
NORTHERLY ISL    N/A     46  28  49 NE2         N/A
$$

LMZ740>746-261400-
SOUTHERN LAKE MICHIGAN

STATION/POSITION SKY/WX   TEMP    WIND        PRES    VSBY  WAVE
                          AIR SEA DIR/SP/G                  HT/PER
                          (F)     (DEG/KT/KT) (MB)    (MI)  (FT/S)
HARRISON CRIB              42     320/  5/  5   N/A
BURNHAM HARBOR             46      40/  3/  3   N/A
CALUMET HARBOR             44     350/  4/  7 1014.5R
BURNS HARBOR               40      20/  6/  6 1015.6R
MICHIGAN CITY              40      20/  7/  8   N/A
ST. JOSEPH                 42 42  150/  4/  6 1015.8          1/ 5
$$

ILZ025>027-034>036-040-047-049-050-058-095>099-261400-
WEST-CENTRAL ILLINOIS

CITY           SKY/WX    TMP DP  RH WIND       PRES   REMARKS
QUINCY         SUNNY     49  42  77 SE6       29.97R
GALESBURG*     FAIR      49  38  65 SE7       29.98S
MACOMB*        SUNNY     43  35  73 SE5       30.00R
JACKSONVILLE*  SUNNY     46  36  68 E5        29.98R
PITTSFIELD*    SUNNY     49  39  68 CALM      29.99R
$$

ILZ028>032-037-038-041>044-048-051>054-059>061-261400-
CENTRAL ILLINOIS

CITY           SKY/WX    TMP DP  RH WIND       PRES   REMARKS
PONTIAC        FAIR      42  34  73 CALM      29.99R
BLOOMINGTON    FAIR      46  32  58 E5        29.98R
DECATUR        FAIR      45  34  65 E5        29.98R
PEORIA         FAIR      47  33  58 CALM      29.99R
LACON*         FAIR      42  31  66 CALM      29.98S
LINCOLN*       FAIR      45  33  63 CALM      29.99R
SPRINGFIELD    FAIR      47  38  71 CALM      29.99R
TAYLORVILLE    FAIR      46  33  59 E6        29.99R
$$

ILZ033-039-045-046-055>057-062-063-261400-
EAST-CENTRAL ILLINOIS

CITY           SKY/WX    TMP DP  RH WIND       PRES   REMARKS
CHAMPAIGN      FAIR      47  30  51 NE8       29.96R
DANVILLE*      FAIR      41  33  75 NE5       29.94R
RANTOUL*       FAIR      46  34  63 N7        29.96R
MATTOON        FAIR      46  32  58 CALM      29.97R
PARIS*         FAIR      44  33  66 NE7       29.98R
$$

ILZ079-100>102-261400-
SOUTHWEST ILLINOIS

CITY           SKY/WX    TMP DP  RH WIND       PRES   REMARKS
ALTON          CLOUDY    48  43  81 CALM      29.96F
BELLEVILLE     CLOUDY    51  40  66 N7        29.96R
CAHOKIA*       CLOUDY    53  42  66 E9        29.97R
SPARTA*        DRIZZLE   50  47  90 N8        29.96S
$$

ILZ064>066-069>071-074>076-080>082-084>086-088>090-092>094-261400-
SOUTH-CENTRAL ILLINOIS

CITY           SKY/WX    TMP DP  RH WIND       PRES   REMARKS
CARBONDALE     LGT RAIN  50  42  74 N8        29.93R
CAIRO*         CLOUDY    55  47  74 N6        29.90R
EFFINGHAM*     FAIR      49  36  61 NE3       30.00R
MARION         LGT RAIN  48  45  87 NE7       29.93S
MT. VERNON     CLOUDY    50  37  61 NE8       29.96R
CENTRALIA*     CLOUDY    51  38  63 NE8       29.95S
SALEM*         CLOUDY    51  35  53 NE7       29.97R
METROPOLIS*    CLOUDY    54  44  68 NE6       29.90R
$$

ILZ067-068-072-073-078-083-087-091-261400-
SOUTHEAST ILLINOIS

CITY           SKY/WX    TMP DP  RH WIND       PRES   REMARKS
LAWRENCEVILLE  FAIR      50  34  54 MISG      29.97R
FLORA*         FAIR      51  37  60 NE6       29.97S
FAIRFIELD*     CLOUDY    50  34  53 NE6       29.94F
HARRISBURG*    CLOUDY    52  44  73 N3        29.94R
ROBINSON*      FAIR      47  35  64 N5        29.98R
CARMI*         CLOUDY    50  41  71 N7        29.94S
$$

ABBREVIATIONS USED IN REMARKS
   TC - TEMPERATURE IN CELSIUS
  WCI - WIND CHILL INDEX
   HX - HEAT INDEX
  VSB - VISIBILITY
$$





USA.gov is the U.S. government's official web portal to all federal, state and local government web resources and services.